Погода в Менеузе-Москве

Россия / Республика Башкортостан     53°52′22″N   54°19′18″E
темп.,
°C
ветер,
м/с
пор.,
м/с
влажн.,
%
обл.,
%
осадки,
мм/ч
давл.,
гПа
погр.,
м
23 апреля, пт
пт2323:00+2ююв41099100 8.9 1030384
02:00+2ююв41099100 0.7 1030462
05:00+2юв26100100 0.9 1029359
08:00+4всв3497100 0.0 1029161
11:00+7вюв4576100 0.0 1028447
14:00+11ююв6757100 0.0 10261006
17:00+11ююв5760100 0.0 10241248
20:00+7юв7886100 0.1 1025683
24 апреля, сб
сб2423:00+6юв4892100 1.0 1023993
02:00+6в51095100 2.2 10201078
05:00+6вюв6892100 5.1 1018979
08:00+5вюв5994100 2.1 1016995
11:00+5вюв5895100 3.2 10151005
14:00+4вюв4797100 1.9 1014805
17:00+5вюв3597100 2.5 1013687
20:00+5ююв1497100 0.1 1013288
25 апреля, вс
вс2523:00+5ююз2597100 0.1 1013180
02:00+5ююз3798100 0.0 1012192
05:00+5ююв4996100 0.0 1011246
08:00+6ю71496100 1.2 1009679
11:00+8зюз9117230 2.4 10101206
14:00+6юз8127391 0.2 10121400
17:00+8зюз11154846 1.2 10132526
20:00+4зюз71187100 0.1 10161025
26 апреля, пн
пн2623:00+5зюз7127226 0.1 1017587
02:00+2юз511865 0.0 1018383
05:00+1юз511911 0.0 1019309
08:00+2юз5118492 0.0 1021357
11:00+7юз565489 0.0 1021824
14:00+9юз4541100 0.0 10201363
17:00+10ююз4539100 0.0 10191571
20:00+9ююв2353100 0.0 101765
27 апреля, вт
вт2723:00+6ю2474100 0.0 1016113
02:00+5в1177100 0.0 101411
05:00+4св3577100 0.0 1011132
08:00+5всв267583 0.0 1010314
11:00+7всв226881 0.0 1010533
14:00+11зюз345319 0.0 10091365
17:00+13з574391 0.0 10082140
20:00+10зюз59586 0.0 1009452